"Pseudo-MPEC" for P21l8ZP

Created 2021 Sep 19 12:07:20 UT using Find_Orb

Click here for an explanation of pseudo-MPECs

 
 Astrometry: 
     P21l8ZP  C2021 09 13UWslo!$eAstrometrypredacted;,Y7?ANQaM30s[ECZF#]_2:XYF52
     P21l8ZP  C2021 09 13c37O*.5cJL\k!3R(![axclickbUSGAH%T19l:wO`JherevoforWcF52
     P21l8ZP  C2021 09 13!_d=:y$l;@!IgvqGQ(`wC]QLw!(sJ_6KexplanationxB8^oA_.\F52

Station data:
(F52) Pan-STARRS 2, Haleakala  (N20.707384 W156.255910)  US/Hawaii. 1.8-m
   Ritchey-Chrétien + CCD.

Orbital elements:  P21l8ZP
   Perihelion 2021 Aug 18.188202 +/- 20.2553 TT =  4:31:00 (JD 2459444.688202)
Epoch 2021 Sep 13.0 TT = JDT 2459470.5   Earth MOID: 0.0018   AutoNEOCP
M  19.07923087 +/- 20.138233        (J2000 ecliptic)
n   0.73916704 +/- 0.393268         Peri.   26.78788 +/- 94.922162
a   1.21145601 +/- 0.429689         Node   295.45824 +/- 74.730077
e   0.1813205 +/- 0.276733          Incl.    0.94972 +/- 12.079380
P   1.33/487.03d           H 26.8   G  0.15   U 12.1  SR
q 0.99179418 +/- 0.0438947    Q 1.43111783 +/- 39.6334
From 3 observations 2021 Sept. 13 (29.7 min); mean residual 0".24
Residuals in arcseconds: 
210913 F52  .12+  .20+    210913 F52  .25-  .41-    210913 F52  .12+  .20+    

Ephemerides (geocentric):
Date (UTC) HH   RA              Dec         delta   r     elong  mag " sig PA
---- -- -- --  -------------   -----------  ------ ------ -----  --- ---- ---
2021 09 19 12  23 01 21.874   +43 24 33.20  .02094 1.0191 134.0 20.1  42d  42
2021 09 19 13  23 02 12.528   +43 19 42.73  .02100 1.0192 134.2 20.1  43d  42
2021 09 19 14  23 03 02.739   +43 14 52.56  .02107 1.0193 134.3 20.1  43d  42
2021 09 19 15  23 03 52.513   +43 10 02.69  .02113 1.0193 134.4 20.2  43d  42
2021 09 19 16  23 04 41.853   +43 05 13.15  .02120 1.0194 134.5 20.2  43d  41
2021 09 19 17  23 05 30.763   +43 00 23.97  .02126 1.0195 134.7 20.2  43d  41
2021 09 19 18  23 06 19.249   +42 55 35.16  .02133 1.0195 134.8 20.2  43d  41
2021 09 19 19  23 07 07.314   +42 50 46.74  .02140 1.0196 134.9 20.2  43d  41
2021 09 19 20  23 07 54.963   +42 45 58.73  .02146 1.0197 135.0 20.2  43d  41
2021 09 19 21  23 08 42.199   +42 41 11.14  .02153 1.0197 135.2 20.2  43d  41
2021 09 19 22  23 09 29.027   +42 36 24.01  .02160 1.0198 135.3 20.2  43d  41
2021 09 19 23  23 10 15.452   +42 31 37.34  .02166 1.0199 135.4 20.2  43d  41
2021 09 20 00  23 11 01.476   +42 26 51.15  .02173 1.0199 135.5 20.2  43d  41
2021 09 20 01  23 11 47.105   +42 22 05.45  .02180 1.0200 135.6 20.2  43d  41
2021 09 20 02  23 12 32.342   +42 17 20.27  .02186 1.0201 135.8 20.2  43d  41
2021 09 20 03  23 13 17.191   +42 12 35.61  .02193 1.0202 135.9 20.2  43d  41
2021 09 20 04  23 14 01.656   +42 07 51.50  .02200 1.0202 136.0 20.2  43d  41
2021 09 20 05  23 14 45.742   +42 03 07.94  .02207 1.0203 136.1 20.2  44d  41
2021 09 20 06  23 15 29.451   +41 58 24.95  .02213 1.0204 136.2 20.2  44d  41
2021 09 20 07  23 16 12.789   +41 53 42.54  .02220 1.0204 136.3 20.2  44d  41
2021 09 20 08  23 16 55.758   +41 49 00.73  .02227 1.0205 136.5 20.2  44d  41
2021 09 20 09  23 17 38.363   +41 44 19.52  .02234 1.0206 136.6 20.2  44d  41
2021 09 20 10  23 18 20.606   +41 39 38.93  .02241 1.0206 136.7 20.2  44d  41
2021 09 20 11  23 19 02.493   +41 34 58.98  .02248 1.0207 136.8 20.2  44d  41
2021 09 20 12  23 19 44.026   +41 30 19.66  .02255 1.0208 136.9 20.2  44d  41
2021 09 20 13  23 20 25.210   +41 25 41.00  .02261 1.0208 137.0 20.2  44d  41
2021 09 20 14  23 21 06.047   +41 21 03.00  .02268 1.0209 137.1 20.2  44d  41
2021 09 20 15  23 21 46.542   +41 16 25.67  .02275 1.0210 137.2 20.2  44d  41
2021 09 20 16  23 22 26.698   +41 11 49.02  .02282 1.0210 137.4 20.2  44d  41
2021 09 20 17  23 23 06.518   +41 07 13.07  .02289 1.0211 137.5 20.2  44d  41
2021 09 20 18  23 23 46.006   +41 02 37.81  .02296 1.0212 137.6 20.2  44d  41
2021 09 20 19  23 24 25.165   +40 58 03.26  .02303 1.0213 137.7 20.3  44d  41
2021 09 20 20  23 25 03.999   +40 53 29.43  .02310 1.0213 137.8 20.3  44d  41
2021 09 20 21  23 25 42.511   +40 48 56.32  .02317 1.0214 137.9 20.3  44d  41
2021 09 20 22  23 26 20.705   +40 44 23.95  .02324 1.0215 138.0 20.3  44d  41
2021 09 20 23  23 26 58.583   +40 39 52.31  .02331 1.0215 138.1 20.3  45d  41
2021 09 21 00  23 27 36.149   +40 35 21.42  .02338 1.0216 138.2 20.3  45d  40
2021 09 21 01  23 28 13.406   +40 30 51.28  .02346 1.0217 138.3 20.3  45d  40
2021 09 21 02  23 28 50.357   +40 26 21.90  .02353 1.0217 138.4 20.3  45d  40
2021 09 21 03  23 29 27.006   +40 21 53.28  .02360 1.0218 138.5 20.3  45d  40
2021 09 21 04  23 30 03.356   +40 17 25.44  .02367 1.0219 138.6 20.3  45d  40
2021 09 21 05  23 30 39.409   +40 12 58.36  .02374 1.0220 138.7 20.3  45d  40
2021 09 21 06  23 31 15.169   +40 08 32.07  .02381 1.0220 138.8 20.3  45d  40
2021 09 21 07  23 31 50.639   +40 04 06.57  .02388 1.0221 138.9 20.3  45d  40
2021 09 21 08  23 32 25.821   +39 59 41.85  .02396 1.0222 139.0 20.3  45d  40
2021 09 21 09  23 33 00.719   +39 55 17.93  .02403 1.0222 139.1 20.3  45d  40
2021 09 21 10  23 33 35.336   +39 50 54.81  .02410 1.0223 139.2 20.3  45d  40
2021 09 21 11  23 34 09.674   +39 46 32.49  .02417 1.0224 139.3 20.3  45d  40